Regional Weather Roundup
Issued by NWS Wilmington, NC

Home | Current Version | Previous Version | Text Only | Print | Product List | Glossary On
Versions: 1 2 3 4 5 6 7 8 9 10 11 12 13 14 15 16 17 18 19 20 21 22 23 24 25 26 27 28 29 30 31 32 33 34 35 36 37 38 39 40 41 42 43 44 45 46 47 48 49 50
000
ASUS42 KILM 311010
RWRILM
RWRILM
REGIONAL HOURLY WEATHER ROUNDUP
NATIONAL WEATHER SERVICE WILMINGTON NC
600 AM EDT SUN AUG 31 2014

NOTE: "FAIR" INDICATES FEW OR NO CLOUDS BELOW 12,000 FEET WITH NO
SIGNIFICANT WEATHER AND/OR OBSTRUCTIONS TO VISIBILITY.

...............WFO WILMINGTON COUNTY WARNING AREA...............

......COASTAL NC AND SC COUNTIES......

CITY           SKY/WX    TMP DP  RH WIND       PRES   REMARKS
WILMINGTON     PTCLDY    71  69  93 CALM      30.16R
SOUTHPORT      PTCLDY    73  71  93 CALM      30.15S
N MYRTLE BEACH PTCLDY    81  76  84 S5        30.14S
MYRTLE BEACH   MOCLDY    81  73  78 MISG      30.15R

......INLAND NC AND SC COUNTIES.......

CITY           SKY/WX    TMP DP  RH WIND       PRES   REMARKS
LUMBERTON      MOCLDY    71  70  96 CALM      30.16R
ELIZABETHTOWN  PTCLDY    71  71  99 CALM      30.17R
WHITEVILLE     PTCLDY    71  70  96 CALM      30.16R
FLORENCE       FOG       71  70  96 CALM      30.15S VSB 3/4
DARLINGTON     CLOUDY    72  68  88 CALM      30.17R

....................REST OF NORTH CAROLINA......................

.........EASTERN NC.........

CITY           SKY/WX    TMP DP  RH WIND       PRES   REMARKS
CAPE HATTERAS  PTCLDY    78  71  79 SW6       30.18R
JACKSONVILLE   PTCLDY    68  64  88 CALM      30.17R
MOREHEAD CITY  CLEAR     77  72  84 SE3       30.17R
KENANSVILLE    PTCLDY    67  66  96 CALM      30.18R
NEW BERN       PTCLDY    72  68  87 CALM      30.18R
ELIZABETH CITY MOCLDY    72  72 100 CALM      30.17S

.........CENTRAL NC.........

CITY           SKY/WX    TMP DP  RH WIND       PRES   REMARKS
RALEIGH DURHAM CLOUDY    75  71  87 S3        30.17S
ROCKY MOUNT    MOCLDY    70  69  97 CALM      30.17R FOG
ROANOKE RAPIDS NOT AVBL
FAYETTEVILLE   PTCLDY    73  71  93 CALM      30.16S
HOFFMAN        MOCLDY    70  70 100 W1        30.18S

.........WESTERN NC.........

CITY           SKY/WX    TMP DP  RH WIND       PRES   REMARKS
CHARLOTTE      LGT RAIN  74  70  87 SW3       30.20R
GREENSBORO     MOCLDY    72  71  97 SW6       30.18R
HICKORY        NOT AVBL
BOONE          NOT AVBL
ASHEVILLE      NOT AVBL

.....................REST OF SOUTH CAROLINA.....................

.........EASTERN SC.........

CITY           SKY/WX    TMP DP  RH WIND       PRES   REMARKS
CHARLESTON     PTCLDY    75  73  93 CALM      30.14R
BEAUFORT MCAS  PTCLDY    77  74  90 CALM      30.14R
HILTON HEAD    NOT AVBL

.........CENTRAL SC.........

CITY           SKY/WX    TMP DP  RH WIND       PRES   REMARKS
COLUMBIA       CLOUDY    77  72  84 CALM      30.15R
ORANGEBURG     MOCLDY    73  70  90 CALM      30.16R
SUMTER SHAW    CLOUDY    72  72 100 NE2       30.15R

.........WESTERN SC.........

CITY           SKY/WX    TMP DP  RH WIND       PRES   REMARKS
GREENVILLE     NOT AVBL
ROCK HILL      CLOUDY    74  71  91 SW5       30.20R
ANDERSON       LGT RAIN  73  72  96 SE5       30.17R
CLEMSON        NOT AVBL
GREENWOOD      LGT RAIN  75  72  90 CALM      30.18S


...................COASTAL AND OFFSHORE REPORTS..................

................LOCAL PIERS AND NC RESERVE................


STATION/POSITION TIME  SKY/WX   TEMP    WIND        PRES    VSBY
                                AIR SEA DIR/SP/G
                 (UTC)          (F)     (DEG/KT/KT) (MB)    (MI)
JOHNY MRCER PIER 1000            81 84  150/  5/  6 1020.6S
NC RESRV MASNBRO 0900            77     220/  1     1020.0F
OCEAN CREST PIER 1000            81 83  130/  9/  9 1020.0F
SPRINGMAID  PIER 1000            82 84  140/  9/ 10 1020.5S


................COASTAL AND OFFSHORE BUOYS................


STATION/POSITION TIME  SKY/WX   TEMP    WIND        PRES    VSBY
                                AIR SEA DIR/SP/G
                 (UTC)          (F)     (DEG/KT/KT) (MB)    (MI)
DIMNDSHOAL 41025 1000            80     180/ 10/ 12 1021.6R
WVE H/P(F/S)=  3/10 WND WVE H/P(F/S)=  2/ 4 SWL H/P/D(F/S/D)=  3/120/10

CAPE LOOKOUT     0900            81     160/  6/  7 1021.2S
ONSLOW BAY 41036 1000            82 83  190/ 10/ 12 1021.7R
WVE H/P(F/S)=  3/ 8 WND WVE H/P(F/S)=  2/ 4 SWL H/P/D(F/S/D)=  3/110/ 8

5 WRITEBCH 41038 1000            78 81  150/  6/  8   N/A
MASONBORO  41110 1000               81                N/A
WVE H/P(F/S)=  2/ 8 WND WVE H/P(F/S)=  2/ 8

WILM HARBR 41108 1000               82                N/A
WVE H/P(F/S)=  2/ 9 WND WVE H/P(F/S)=  2/ 9

27WRITEBCH 41037 NOT AVBL
FRYING PAN 41013 NOT AVBL
SUNST NRSH 41024 0900            82     160/ 10/ 10 1020.5F
CAPRS NRSH 41029 0900            80     250/  4/  6   N/A
EDISTO     41004 1000            82 83  210/  6/  6 1019.8R
WVE H/P(F/S)=  3/10 WND WVE H/P(F/S)=  2/ 4 SWL H/P/D(F/S/D)=  3/10



..........OFFSHORE BUOYS BEYOND 100 NM OFFSHORE...........
.....IN A TRIANGLE---HAT TO BERMUDA TO BAHAMAS TO HAT.....


STATION/POSITION TIME  SKY/WX   TEMP    WIND        PRES    VSBY
                                AIR SEA DIR/SP/G
                 (UTC)          (F)     (DEG/KT/KT) (MB)    (MI)
150E HAT   41001 NOT AVBL
W BERMUDA  41048 0943            79 79   60/ 10/ 10 1022.6R
WVE H/P(F/S)=  4/ 9 WND WVE H/P(F/S)=  2/ 4 SWL H/P/D(F/S/D)=  3/110/ 9

ATLANTIC S 41049 0929            82 85   10/  6/  6 1020.7R
WVE H/P(F/S)=  4/ 8 SWL H/P/D(F/S/D)=  3/ 80/ 8

E BAHAMAS  41046 0926            82 84   80/  8/ 10 1019.0R
WVE H/P(F/S)=  4/ 9 WND WVE H/P(F/S)=  2/ 4 SWL H/P/D(F/S/D)=  3/ 80/ 9

NE BAHAMAS 41047 0935            81 84   70/  8/ 10 1021.4R
WVE H/P(F/S)=  4/ 8 WND WVE H/P(F/S)=  2/ 4 SWL H/P/D(F/S/D)=  3/120/ 8

120E CANVRL41010 1000            83 83  120/  6/  8 1020.9R
WVE H/P(F/S)=  3/10 WND WVE H/P(F/S)=  2/ 4 SWL H/P/D(F/S/D)=  3/110/10


END


USA.gov is the U.S. government's official web portal to all federal, state and local government web resources and services.